A/2019 T1

Japanese version
Home page
Updated on December 24, 2019

---------------------------------------------------------------------

* Profile

Discovery Date October 8, 2019
Magnitude 20.7 mag
Discoverer Pan-STARRS 2 (Haleakala)

* Orbital Elements

Epoch 2021 Jan. 26.0 TT = JDT 2459240.5
T 2021 Jan. 14.26706 TT                                 Williams
q   4.2815888            (2000.0)            P               Q
z  +0.0261415      Peri.   91.03151     +0.04423923     -0.99360148
 +/-0.0000000      Node     6.95382     -0.81058079     -0.09650226
e   0.8880729      Incl.  120.86969     +0.58395349     -0.05868055
H   13.0
From 48 observations 2017 Sept. 16-2019 Nov. 24, mean residual 0".3.

* Magnitudes Graph

        H = 13.0  G = 0.15

---------------------------------------------------------------------

The orbital elements are published on M.P.E.C. 2019-X94.
The magnitudes graphs are made with Comet for Windows.

---------------------------------------------------------------------

Copyright(C) Seiichi Yoshida (comet@aerith.net). All rights reserved.